Weather History for Newport News, VA

Change the Weather History Date:

Tuesday, November 26, 2013

  Actual Average Record
Temperature  
Mean Temperature 52 °F -  
Max Temperature 66 °F 58 °F 75 °F (1999)
Min Temperature 39 °F 38 °F 20 °F (1950)
Degree Days  
Heating Degree Days 12    
Growing Degree Days 2 (Base 50)    
Moisture  
Dew Point 42 °F    
Average Humidity 72    
Maximum Humidity 88    
Minimum Humidity 52    
Precipitation  
Precipitation 0.72 in - - ()
Sea Level Pressure  
Sea Level Pressure 30.09 in    
Wind  
Wind Speed 6 mph (ESE)    
Max Wind Speed 21 mph    
Max Gust Speed 33 mph    
Visibility 8 miles    
Events Rain    
Averages and records for this station are not official NWS values.
T = Trace of Precipitation, MM = Missing Value Source: NWS Daily Summary

Daily Weather History Graph

Daily Weather History Graph

Search for Another Location

Airport:

Trip Planner

Search our weather history database for the weather conditions in past years. The results will help you decide how hot, cold, wet, or windy it might be!

Date:

Astronomy

Nov. 26, 2013 Rise Set
Actual Time 6:56 AM EST 4:50 PM EST
Civil Twilight 6:27 AM EST 5:18 PM EST
Nautical Twilight 5:55 AM EST 5:50 PM EST
Astronomical Twilight 5:24 AM EST 6:21 PM EST
Moon 12:06 AM EST (11/26) 12:47 PM EST (11/26)
Length of Visible Light 10h 50m
Length of Day
9h 53m
Last Quarter, 41% of the Moon is Illuminated
Nov 26
Last Quarter
Dec 2
New
Dec 9
First Quarter
Dec 17
Full
Dec 25
Last Quarter

Hourly Weather History & Observations

Time (EST) Temp. Windchill Dew Point Humidity Pressure Visibility Wind Dir Wind Speed Gust Speed Precip Events Conditions
12:54 AM 39.0 °F 36.8 °F 24.1 °F 55% 30.40 in 10.0 mi SSW 3.5 mph - N/A   Clear
1:54 AM 39.9 °F 36.7 °F 24.1 °F 53% 30.38 in 10.0 mi WSW 4.6 mph - N/A   Scattered Clouds
2:54 AM 39.9 °F 37.8 °F 26.1 °F 58% 30.37 in 10.0 mi SW 3.5 mph - N/A   Scattered Clouds
3:54 AM 39.9 °F - 26.1 °F 58% 30.35 in 10.0 mi Calm Calm - N/A   Scattered Clouds
4:54 AM 39.9 °F - 28.0 °F 63% 30.33 in 10.0 mi Calm Calm - N/A   Overcast
5:54 AM 41.0 °F - 27.0 °F 57% 30.32 in 10.0 mi Calm Calm - N/A   Overcast
6:54 AM 41.0 °F - 28.9 °F 62% 30.31 in 10.0 mi Calm Calm - N/A   Overcast
7:54 AM 41.0 °F - 30.0 °F 65% 30.31 in 10.0 mi Calm Calm - N/A   Overcast
8:54 AM 45.0 °F 43.5 °F 28.0 °F 52% 30.30 in 10.0 mi East 3.5 mph - N/A   Overcast
9:54 AM 46.9 °F - 30.0 °F 52% 30.27 in 10.0 mi ENE 5.8 mph - 0.00 in   Mostly Cloudy
10:54 AM 48.9 °F - 33.1 °F 54% 30.23 in 10.0 mi East 10.4 mph - N/A   Mostly Cloudy
11:54 AM 48.9 °F - 36.0 °F 61% 30.20 in 10.0 mi East 6.9 mph - 0.00 in   Overcast
12:54 PM 48.9 °F - 41.0 °F 74% 30.17 in 10.0 mi NE 4.6 mph - 0.00 in Rain Light Rain
1:54 PM 48.0 °F - 42.1 °F 80% 30.12 in 10.0 mi NE 5.8 mph - 0.01 in Rain Light Rain
2:54 PM 48.0 °F - 43.0 °F 83% 30.09 in 6.0 mi ENE 4.6 mph - 0.03 in Rain Light Rain
3:54 PM 50.0 °F - 46.0 °F 86% 30.04 in 3.0 mi ENE 6.9 mph - 0.10 in Rain Rain
4:54 PM 54.0 °F - 50.0 °F 86% 29.97 in 5.0 mi East 10.4 mph - 0.10 in Rain Rain
5:08 PM 55.4 °F - 51.8 °F 88% 29.96 in 5.0 mi ESE 9.2 mph - 0.02 in Rain Rain
5:17 PM 57.2 °F - 53.6 °F 88% 29.95 in 6.0 mi ESE 11.5 mph - 0.03 in Rain Light Rain
5:54 PM 60.1 °F - 55.0 °F 83% 29.92 in 7.0 mi SE 12.7 mph 21.9 mph 0.08 in Rain Light Rain
6:54 PM 61.0 °F - 57.0 °F 87% 29.86 in 8.0 mi SE 16.1 mph 21.9 mph 0.05 in Rain Light Rain
7:54 PM 62.1 °F - 57.9 °F 86% 29.81 in 5.0 mi SE 11.5 mph 20.7 mph 0.12 in Rain Rain
8:54 PM 64.0 °F - 59.0 °F 84% 29.73 in 10.0 mi SSE 20.7 mph 33.4 mph 0.03 in   Overcast
9:54 PM 64.9 °F - 60.1 °F 84% 29.68 in 7.0 mi SSE 16.1 mph 25.3 mph 0.00 in Rain Light Rain
10:54 PM 66.9 °F - 62.1 °F 84% 29.62 in 4.0 mi South 16.1 mph 26.5 mph 0.11 in Rain Rain
11:54 PM 66.9 °F - 62.1 °F 84% 29.60 in 4.0 mi South 16.1 mph 26.5 mph 0.09 in Rain Light Rain